Location: *
(50.6089°N, 2.2719°E)
Time: 11:55:22
(UTC+00:00)

Okean 3 Rocket - Pass Details

Date: 18 October 2019
Orbit: 615 x 645 km, 82.5° (Epoch: 16 November)

Event Time Altitude Azimuth Distance (km) Brightness Sun altitude
Rises 19:28:02 0° 349° (N) 2,969 7.4 -25.1°
Reaches altitude 10° 19:30:18 10° 349° (N) 2,052 6.5 -25.4°
Enters shadow 19:34:11 64° 342° (NNW) 716 3.9 -26.0°
